Date,TemperatureHighF,TemperatureAvgF,TemperatureLowF,DewpointHighF,DewpointAvgF,DewpointLowF,HumidityHigh,HumidityAvg,HumidityLow,PressureMaxIn,PressureMinIn,WindSpeedMaxMPH,WindSpeedAvgMPH,GustSpeedMaxMPH,PrecipitationSumIn
2013-10-1,58,52,47,50,47,44,90,83,71,30.19,30.14,2,0,5,0.52
2013-10-2,54,48,42,49,45,40,92,88,80,30.14,30.08,9,2,11,0.12
2013-10-3,52,46,40,45,42,38,92,87,76,30.39,30.30,2,0,4,0.12
2013-10-4,58,48,34,51,45,32,92,87,74,30.43,30.32,5,2,11,0.01
2013-10-5,66,57,39,54,48,37,92,74,53,30.28,30.14,4,1,8,0.01
2013-10-6,74,65,43,57,48,41,91,56,37,30.06,29.97,6,2,13,0.00
2013-10-7,61,55,50,53,50,46,91,84,71,30.14,30.02,7,2,14,0.14
2013-10-8,53,50,48,50,47,45,91,90,86,30.12,29.98,8,3,13,0.21
2013-10-9,56,47,40,49,43,38,92,86,74,30.08,29.96,5,2,10,0.04
2013-10-10,61,56,48,51,48,44,92,76,56,30.04,30.00,5,1,6,0.00
2013-10-11,57,52,45,48,45,41,91,78,62,30.13,30.08,0,0,0,0.00
2013-10-12,56,51,45,49,44,-100,91,82,74,30.12,30.06,0,0,0,0.04
2013-10-13,58,47,35,50,43,33,92,85,70,30.26,30.20,8,1,12,0.01
2013-10-14,56,52,51,49,48,47,87,85,77,30.26,30.25,2,1,3,0.00
2013-10-15,64,56,50,46,44,43,78,65,50,30.14,30.11,4,1,9,0.01
2013-10-16,51,51,51,46,46,46,83,82,82,30.11,30.11,2,0,2,0.00
2013-10-17,60,53,49,52,48,46,90,85,75,30.13,30.12,0,0,1,0.01
2013-10-18,59,54,53,49,48,47,84,81,70,30.07,30.06,1,0,2,0.01
2013-10-19,66,57,45,55,48,-100,92,77,64,30.14,30.08,0,0,1,0.01
2013-10-22,63,58,57,53,52,51,83,80,70,29.96,29.95,0,0,0,0.01
2013-10-23,66,58,54,57,53,51,90,84,73,29.95,29.93,1,0,2,0.01
2013-10-24,52,52,52,49,49,49,90,90,90,30.03,30.03,0,0,0,0.01
2013-10-25,50,50,50,47,47,47,91,91,91,30.24,30.22,4,2,7,0.02
2013-10-26,51,49,48,48,44,-100,92,89,89,30.27,30.16,6,1,11,0.01
2013-10-27,52,50,47,50,47,45,92,89,84,30.07,29.81,11,4,17,0.21
2013-10-28,56,47,46,39,28,-100,60,57,51,29.85,29.80,4,1,7,0.00
2013-10-29,49,44,42,38,37,36,83,76,65,30.01,29.98,2,1,3,0.00
2013-10-30,57,53,51,43,42,39,75,66,52,30.16,30.14,2,0,3,0.01
2013-10-31,55,53,52,52,50,49,91,91,91,30.24,30.22,1,0,3,0.05